SCP
0 0 0 0 0 0 0 0 0 0 0 0 0 0 0 0 0 0 0 0 0 0 0 0 0 0 0 0 0 0 0 0 0 0 0 0 0 0 0 0 0 0 0 0
0 0 0 0 0 0 0 0 0 0 0 0 0 0 0 0 0 0 0 0 0 0 0 0 0 0 0 0 0 0 0 0 0 0 0 0 0 0 0 0 0 0 0 0
0 0 0 0 0 0 0 0 0 0 0 0 0 0 0 0 0 0 0 0 0 0 0 0 0 0 0 0 0 0 0 0 0 0 0 0 0 0 0 0 0 0 0 0
0 0 0 0 0 0 0 0 0 0 0 0 0 0 0 0 0 0 0 0 0 0 0 0 0 0 0 0 0 0 0 0 0 0 0 0 0 0 0 0 0 0 0 0
0 0 0 0 0 0 0 0 0 0 0 0 0 0 0 0 0 0 0 0 0 0 0 0 0 0 0 0 0 0 0 0 0 0 0 0 0 0 0 0 0 0 0 0
0 0 0 0 0 0 0 0 0 0 0 0 0 0 0 0 0 0 0 0 0 0 0 0 0 0 0 0 0 0 0 0 0 0 0 0 0 0 0 0 0 0 0 0
0 0 0 0 0 0 0 0 0 0 0 0 0 0 0 0 0 0 0 0 0 0 0 0 0 0 0 0 0 0 0 0 0 0 0 0 0 0 0 0 0 0 0 0
0 0 0 0 0 0 0 0 0 0 0 0 0 0 0 0 0 0 0 0 0 0 0 0 0 0 0 0 0 0 0 0 0 0 0 0 0 0 0 0 0 0 0 0
0 0 0 0 0 0 0 0 0 0 0 0 0 0 0 0 0 0 0 0 0 0 0 0 0 0 0 0 0 0 0 0 0 0 0 0 0 0 0 0 0 0 0 0
0 0 0 0 0 0 0 0 0 0 0 0 0 0 0 0 0 0 0 0 0 0 0 0 0 0 0 0 0 0 0 0 0 0 0 0 0 0 0 0 0 0 0 0
0 0 0 0 0 0 0 0 0 0 0 0 0 0 0 0 0 0 0 0 0 0 0 0 0 0 0 0 0 0 0 0 0 0 0 0 0 0 0 0 0 0 0 0
0 0 0 0 0 0 0 0 0 0 0 0 0 0 0 0 0 0 0 0 0 0 0 0 0 0 0 0 0 0 0 0 0 0 0 0 0 0 0 0 0 0 0 0
0 0 0 0 0 0 0 0 0 0 0 0 0 0 0 0 0 0 0 0 0 0 0 0 0 0 0 0 0 0 0 0 0 0 0 0 0 0 0 0 0 0 0 0
0 0 0 0 0 0 0 0 0 0 0 0 0 0 0 0 0 0 0 0 0 0 0 0 0 0 0 0 0 0 0 0 0 0 0 0 0 0 0 0 0 0 0 0
0 0 0 0 0 0 0 0 0 0 0 0 0 0 0 0 0 0 0 0 0 0 0 0 0 0 0 0 0 0 0 0 0 0 0 0 0 0 0 0 0 0 0 0
0 0 0 0 0 0 0 0 0 0 0 0 0 0 0 0 0 0 0 0 0 0 0 0 0 0 0 0 0 0 0 0 0 0 0 0 0 0 0 0 0 0 0 0
0 0 0 0 0 0 0 0 0 0 0 0 0 0 0 0 0 0 0 0 0 0 0 0 0 0 0 0 0 0 0 0 0 0 0 0 0 0 0 0 0 0 0 0
0 0 0 0 0 0 0 0 0 0 0 0 0 0 0 0 0 0 0 0 0 0 0 0 0 0 0 0 0 0 0 0 0 0 0 0 0 0 0 0 0 0 0 0
0 0 0 0 0 0 0 0 0 0 0 0 0 0 0 0 0 0 0 0 0 0 0 0 0 0 0 0 0 0 0 0 0 0 0 0 0 0 0 0 0 0 0 0
0 0 0 0 0 0 0 0 0 0 0 0 0 0 0 0 0 0 0 0 0 0 0 0 0 0 0 0 0 0 0 0 0 0 0 0 0 0 0 0 0 0 0 0
0 0 0 0 0 0 0 0 0 0 0 0 0 0 0 0 0 0 0 0 0 0 0 0 0 0 0 0 0 0 0 0 0 0 0 0 0 0 0 0 0 0 0 0
0 0 0 0 0 0 0 0 0 0 0 0 0 0 0 0 0 0 0 0 0 0 0 0 0 0 0 0 0 0 0 0 0 0 0 0 0 0 0 0 0 0 0 0
0 0 0 0 0 0 0 0 0 0 0 0 0 0 0 0 0 0 0 0 0 0 0 0 0 0 0 0 0 0 0 0 0 0 0 0 0 0 0 0 0 0 0 0
0 0 0 0 0 0 0 0 0 0 0 0 0 0 0 0 0 0 0 0 0 0 0 0 0 0 0 0 0 0 0 0 0 0 0 0 0 0 0 0 0 0 0 0
0 0 0 -0 -0 0 0 0 0 0 0 0 0 0 0 0 0 0 0 0 0 0 0 0 0 0 0 0 0 0 0 0 0 0 0 0 0 0 0 0 0 0 0 0
0 0 -0 -0 -0 0 0 0 0 0 0 0 0 0 0 0 0 0 0 0 0 0 0 0 0 0 0 0 0 0 0 0 0 0 0 0 0 0 0 0 0 0 0 0
Wind_Speed
5 5 7 10 10 8 6 8 9 7 5 7 8 7 5 4 5 4 4 4 5 4 4 5 5 5 4 4 5 6 6 6 6 5 4 4 3 3 3 3 4 4 4 3
3 7 8 7 8 9 8 8 8 4 3 4 6 7 5 5 5 4 4 4 4 4 4 5 5 5 4 4 5 5 5 6 6 4 4 4 4 3 3 3 4 4 4 3
7 4 6 8 8 8 7 7 6 4 3 5 4 6 7 6 5 4 3 3 4 5 4 4 4 4 4 4 4 4 5 5 6 6 5 4 3 3 3 3 3 3 4 4
5 4 5 7 7 6 7 6 5 4 4 4 5 4 6 7 5 5 4 3 3 3 4 4 4 4 4 4 3 4 4 4 5 6 6 7 5 4 3 4 3 3 4 4
3 3 6 7 6 5 4 3 4 5 4 3 5 4 4 6 6 6 4 4 4 3 3 4 4 3 3 4 4 3 4 4 4 5 6 6 5 4 4 4 5 4 3 4
3 2 3 4 4 3 1 0 2 3 2 4 7 6 4 5 7 6 4 4 4 4 4 3 3 3 3 3 4 3 4 4 4 4 5 5 6 6 6 5 5 4 3 2
3 2 1 2 2 1 2 3 2 3 4 5 5 5 3 2 3 5 5 4 4 4 4 3 3 3 3 3 3 3 4 4 4 4 4 5 5 6 7 6 5 4 3 2
1 2 2 2 2 3 4 4 3 3 4 2 5 5 2 2 3 3 4 4 4 4 4 3 3 3 3 3 3 3 3 4 4 4 3 4 4 4 3 4 5 4 3 3
1 2 1 1 1 2 4 4 2 2 2 2 3 2 2 2 3 3 4 4 3 3 3 3 2 2 3 3 3 3 3 3 4 4 3 3 3 4 4 4 4 4 3 3
2 2 2 1 1 1 2 2 0 1 2 2 3 3 3 3 2 3 4 3 3 2 3 2 2 2 2 2 2 2 3 3 3 3 3 2 2 3 4 4 5 4 4 4
2 1 1 1 3 3 2 2 1 2 2 2 2 1 1 3 4 4 3 2 3 3 3 2 2 2 2 2 2 2 2 3 3 3 3 3 2 2 3 3 4 4 4 4
2 1 2 2 1 1 0 1 2 2 3 2 1 2 3 4 4 4 3 2 3 4 3 3 2 2 2 2 2 2 2 2 2 3 3 3 2 2 3 3 4 4 4 4
2 0 0 1 0 1 1 2 2 1 1 2 2 2 2 4 4 3 2 2 3 4 4 3 3 2 2 2 2 2 2 2 2 2 3 3 3 2 2 3 3 4 4 4
3 1 2 3 2 1 2 3 2 1 2 2 3 2 3 3 3 3 3 2 3 3 3 3 2 2 2 1 1 1 1 2 2 2 3 3 3 3 2 2 3 4 4 4
2 2 3 4 3 2 3 4 4 4 4 3 2 2 3 2 2 2 3 3 3 3 3 3 2 2 2 2 1 1 2 2 2 3 3 2 2 2 2 2 3 3 4 4
2 2 2 3 3 3 4 5 5 5 5 5 4 4 3 3 3 3 3 3 2 2 3 3 2 2 2 1 1 1 1 2 2 2 2 2 2 2 2 2 3 3 3 3
1 1 2 2 2 1 4 5 5 5 4 4 5 3 2 4 3 3 2 2 2 2 2 2 2 2 2 1 0 1 1 1 2 2 2 2 2 2 2 2 3 3 3 3
2 1 2 2 1 4 3 1 0 2 1 2 2 3 3 3 3 2 2 2 2 2 1 2 2 2 2 2 1 1 1 2 2 2 2 1 2 2 1 2 3 3 3 3
2 2 1 1 2 4 2 1 0 2 2 2 2 3 4 3 3 2 3 3 2 2 2 2 2 1 2 1 1 1 1 2 2 2 1 1 1 2 1 2 2 2 3 2
0 1 1 2 3 3 1 2 2 1 2 3 4 3 3 3 2 2 4 4 3 3 3 2 2 2 2 1 1 1 2 2 2 1 1 1 1 2 1 1 2 2 2 2
0 1 2 3 3 2 3 5 2 1 2 4 3 3 2 2 2 3 4 4 3 3 3 3 3 2 2 1 1 2 2 2 1 2 2 1 1 1 1 1 1 2 2 2
2 1 2 2 3 3 4 3 2 1 3 4 4 3 2 3 3 3 3 4 4 4 4 4 3 3 2 2 2 2 2 2 2 2 2 1 1 1 2 2 2 1 2 2
2 2 2 2 2 1 1 2 2 3 4 4 4 4 2 2 3 3 4 4 4 4 4 4 3 3 3 3 2 2 1 2 2 2 2 1 2 1 2 2 2 1 1 2
1 1 1 2 2 2 2 3 4 4 4 4 4 3 2 2 3 3 3 3 3 4 4 4 3 3 3 3 3 2 2 2 2 2 2 1 2 2 2 1 1 1 1 1
2 1 2 3 3 3 1 3 4 4 4 4 4 3 2 2 2 2 3 3 3 3 3 3 3 3 3 3 3 2 2 2 2 1 1 1 2 2 2 2 1 1 1 1
1 2 2 2 1 2 3 3 3 3 4 4 3 3 3 2 2 2 2 2 3 3 3 3 3 3 3 3 3 2 2 2 2 1 1 1 1 1 2 2 2 3 2 3
Wind_Direction
196 202 211 212 220 234 227 228 235 234 209 213 223 229 221 194 190 195 192 172 158 149 135 127 128 127 126 125 134 144 142 146 140 135 138 134 142 141 129 126 127 126 121 114
196 220 227 228 231 237 236 236 239 245 219 221 222 230 224 203 196 190 186 165 153 135 129 125 126 128 133 136 136 142 146 151 146 145 145 137 136 135 131 125 128 130 124 119
212 226 230 230 226 230 238 233 239 240 258 242 223 235 214 217 197 181 165 154 143 148 150 142 136 130 136 142 148 149 152 155 151 143 130 121 108 107 116 131 139 138 133 125
223 246 241 232 221 220 235 245 247 234 212 226 202 231 214 196 184 170 161 149 146 149 151 146 140 139 146 147 141 146 149 152 152 145 147 151 151 153 158 153 148 140 136 133
227 226 228 220 221 229 232 258 248 234 227 242 214 218 222 177 187 180 170 158 152 144 140 140 139 141 140 140 143 148 146 149 149 152 154 156 151 147 138 140 143 142 141 139
241 212 224 221 233 236 254 262 246 247 226 233 213 209 224 195 188 173 166 158 143 135 130 126 116 108 109 123 135 143 148 151 150 151 160 159 156 150 147 151 151 150 146 144
242 206 194 191 199 188 172 142 165 190 210 231 207 207 219 160 149 157 161 155 138 134 133 129 129 132 128 128 136 147 147 150 147 149 165 159 159 159 160 159 157 153 151 154
228 226 212 186 185 198 204 185 193 197 202 234 195 201 194 138 124 129 123 129 123 122 127 130 140 144 144 145 147 152 153 152 151 155 161 155 157 160 157 152 152 154 155 157
306 258 266 192 176 175 185 219 264 288 265 208 200 172 149 108 113 122 111 98 110 114 119 125 133 136 139 151 157 159 154 150 152 152 142 149 151 158 155 153 145 145 144 151
328 288 252 211 172 251 222 225 140 216 231 229 207 200 191 165 139 108 110 108 116 105 100 105 122 127 131 138 137 135 145 146 146 143 150 145 142 144 148 147 150 150 147 146
356 298 251 204 205 201 186 203 213 237 255 236 208 236 69 157 157 148 138 118 117 107 100 96 99 106 101 105 116 114 122 126 134 143 147 135 134 138 143 149 153 151 144 148
359 326 245 231 308 347 260 194 184 206 260 267 256 279 22 59 100 122 132 119 110 108 97 85 74 76 93 104 112 113 114 116 129 141 141 133 133 138 154 155 151 145 143 147
1 29 196 188 214 358 304 269 246 272 287 267 234 251 30 49 64 84 95 86 88 92 86 77 71 56 69 95 105 108 111 114 115 126 136 133 140 144 159 157 147 143 143 142
351 229 227 224 242 240 256 261 243 212 234 258 246 259 331 7 32 37 45 55 73 86 91 84 70 48 29 60 97 104 106 111 123 124 125 132 146 152 149 147 140 143 144 143
0 273 273 283 274 259 269 251 242 229 240 246 283 298 296 331 9 16 36 46 57 69 67 60 54 38 25 26 61 87 99 103 113 119 121 128 132 136 134 140 141 141 140 144
359 301 292 285 256 240 267 257 245 244 252 258 278 293 336 4 35 40 33 43 46 51 45 34 35 34 29 19 34 65 79 92 103 111 119 121 120 121 134 144 143 135 134 140
299 296 288 267 269 301 253 235 224 228 243 243 254 268 1 2 9 22 12 24 28 32 27 21 12 8 3 348 33 73 94 94 102 103 102 109 122 126 135 145 149 148 147 142
218 271 260 271 340 236 239 193 207 209 253 301 308 326 340 341 333 11 15 20 12 13 23 5 353 348 351 353 40 80 100 99 107 107 104 103 117 127 127 138 150 150 142 144
207 201 253 243 241 253 257 350 122 201 269 340 333 339 352 356 351 1 17 19 22 17 2 353 347 352 5 4 37 92 103 102 105 112 116 118 121 129 132 144 147 145 140 144
187 178 220 247 245 249 335 341 318 213 253 5 2 333 331 345 311 299 355 6 12 10 6 2 10 25 27 13 31 91 99 97 100 104 105 101 115 130 132 145 137 122 129 140
329 246 224 246 249 269 348 322 348 152 265 341 338 326 337 318 295 305 341 1 17 17 10 12 20 20 12 13 39 83 83 80 73 69 74 79 87 107 116 107 112 120 121 129
197 222 222 239 238 260 356 8 49 310 332 339 341 344 347 337 341 353 1 5 13 14 10 14 18 9 8 20 53 73 69 64 70 80 85 89 89 85 98 106 106 120 133 137
191 200 215 221 232 306 23 42 358 351 341 341 345 347 359 347 345 354 360 2 4 4 2 7 13 7 12 24 51 78 65 77 82 85 80 87 79 82 101 116 117 115 124 133
251 253 245 273 278 322 5 19 8 356 349 349 357 355 2 351 347 352 354 356 359 2 2 4 13 12 9 17 37 50 66 78 85 93 88 92 101 95 97 96 107 117 127 139
286 284 254 254 283 314 339 0 350 349 356 0 3 360 353 2 349 351 354 356 355 355 353 1 7 5 1 15 30 30 54 81 85 89 87 88 95 96 93 77 74 91 73 115
245 246 250 254 295 296 301 329 345 344 347 351 352 354 1 5 347 353 354 355 355 353 359 9 12 7 4 15 19 14 37 81 100 98 85 82 89 85 91 90 60 51 72 63